FALCON 9 R/B, 52818

Orbit data source: Space-Track

FALCON 9 R/B, 52818 is space debris in HEO originally from a launch on Wed, 08 Jun 2022 UTC launched from the Air Force Eastern Test Range (AFETR). Debris objects in space refer to the collection of defunct objects orbiting the Earth. Examples of debris include non-operational satellites, rocket bodies, and fragments generated from explosions, collisions, or faulty payload assembly.

Loading next visibility...
Identifier
52818, 2022-061B
Orbit
HEO
Country
Flag of USUS
Related business
Manufacturer
SpaceX
Mission
Spacecraft
Bus & Motor
F9ST2, Unknown motor
Mass
~4,000 kg wet, ~4,000 kg dry
Launch date (UTC)
2022-06-08 (4 years ago)
Launch vehicle
Unknown
Launch site
Air Force Eastern Test Range (AFETR)
Object type
Payload
Rocket body
Debris
Shape & HBR
Cyl, 7.8 m
Radar Cross Section
39.980 m², Large (>1 m²)

Expand to show TLE details & history
Last TLE update: 4 days ago

TLE from 4 days ago
0 FALCON 9 R/B
1 52818U 22061B   26169.03635998  .00000418  00000-0  91023-3 0  9993
2 52818  18.8634 331.9942 7633064 254.8983  17.2737  1.82242311 26341
Epoch: 2026-06-18T00:52Z
TLE epoch observation values (Epoch: 2026-06-18T00:52:21.502Z)
Latitude
-0.00081°
Longitude
52.59558°
Altitude
8,340.223 km
Speed
6.331 km/s
True Right ascension
22h 07m 52s
True Declination
0° 00' 03"
Sunlit
Object was in daylight at epoch
Visualization orbit readout
Latitude
Unknown
Longitude
Unknown
Altitude
Unknown
Speed
Unknown
Apparent Right ascension
Unknown
Apparent Declination
Unknown
Sunlit
N/A
Visualization observer readout
Local Sidereal Time
21:36:30
Azimuth
Unknown
Elevation
Unknown
Doppler factor
Unknown
Orbital elements
Apogee altitude
43,553.029 km
Perigee altitude
324.264 km
Semi-major axis
28,316.784 km
Eccentricity
0.76331
Inclination
18.8634°
RAAN
331.9942°
Arg. of periapsis
254.8983°
True anomaly
105.56193°
Mean anomaly
17.2737°
Eccentric anomaly
51.50089°
Mean motion
0.45549 °/min
Orbital period
790.36 mins
BSTAR
0.00091023
Loading maneuver chart data...
Computing Atmospheric mass density...
Loading historical data...
Loading historical data...
Loading historical data...
Loading historical data...
Loading historical data...
Loading historical data...
Loading historical data...
Other satellites on launch #61 in the year 2022 (2022-06-08 UTC)

Documentation

Showing up to 5 results
|